Location: Austin
(30.3000°N, 97.7500°W)
Time: 20:56:49
(UTC-06:00)

DELTA 2 R/B (1) - Pass Details

Date: 31 October 2024
Orbit: 789 x 800 km, 39.6° (Epoch: 05 November)

Event Time Altitude Azimuth Distance (km) Brightness Sun altitude
Exits shadow 05:43:22 35° 187° (S) 1,248 4.5 -26.7°
Maximum altitude 05:45:00 45° 145° (SE) 1,065 4.4 -26.3°
Drops below altitude 10° 05:50:16 10° 73° (ENE) 2,353 6.9 -25.2°
Sets 05:52:50 0° 67° (ENE) 3,282 7.8 -24.7°
